Tracking 20083 objects as of 10-Dec-2019
HD Live streaming from Space Station
objects crossing your sky now

PSLV DEB

Track PSLV DEB now!
10-day predictions


NORAD ID: 27142
Int'l Code: 2001-049CN
Perigee: 657.5 km
Apogee: 1,074.2 km
Inclination: 97.4 °
Period: 102.1 minutes
Semi major axis: 7236 km
RCS: 0.0118 m2 (small)
Launch date: October 22, 2001
Source: India (IND)
Launch site: SRIHARIKOTA (SRI)

Note: This is SATELLITE DEBRIS
aabbcc
Your satellite tracking list
Your tracking list is empty




NASA's NSSDC Master Catalog

Two Line Element Set (TLE):
1 27142U 01049CN  19343.90327417 +.00000033 +00000-0 +26548-4 0  9998
2 27142 097.3885 048.4630 0287930 009.8462 350.8191 14.10190508923146
Source of the keplerian elements: AFSPC